Fryeburg, ME

2:30 AM EDT on April 29, 2017 (GMT -0400)
Eastern Slopes Regional

Weather History for KIZG - April, 2012

Change the Weather History Date:

Thursday, April 26, 2012

  Actual Average Record
Temperature  
Mean Temperature 45 °F -  
Max Temperature 62 °F 59 °F 66 °F (2005)
Min Temperature 30 °F 30 °F 21 °F (2001)
Degree Days  
Heating Degree Days 20    
Moisture  
Dew Point 34 °F    
Average Humidity 70    
Maximum Humidity 96    
Minimum Humidity 27    
Precipitation  
Precipitation 0.32 in - - ()
Sea Level Pressure  
Sea Level Pressure 29.76 in    
Wind  
Wind Speed 3 mph (SSE)    
Max Wind Speed 12 mph    
Max Gust Speed 20 mph    
Visibility 8 miles    
Events Rain    
Averages and records for this station are not official NWS values.
T = Trace of Precipitation, MM = Missing Value Source: NWS Daily Summary

Daily Weather History Graph

Daily Weather History Graph

Search for Another Location

Airport or City:

Trip Planner

Search our weather history database for the weather conditions in past years. The results will help you decide how hot, cold, wet, or windy it might be!

Date:

Astronomy

Apr. 26, 2012 Rise Set
Actual Time 5:42 AM EDT 7:41 PM EDT
Civil Twilight 5:11 AM EDT 8:12 PM EDT
Nautical Twilight 4:32 AM EDT 8:51 PM EDT
Astronomical Twilight 3:51 AM EDT 9:33 PM EDT
Moon 9:14 AM EDT (4/26) No Moon Set
Length of Visible Light 15h 01m
Length of Day
13h 59m
Waxing Crescent, 24% of the Moon is Illuminated
Apr 26
Waxing Crescent
Apr 29
First Quarter
May 5
Full
May 12
Last Quarter
May 20
New

Hourly Weather History & Observations

Time (EDT) Temp. Windchill Dew Point Humidity Pressure Visibility Wind Dir Wind Speed Gust Speed Precip Events Conditions
12:54 AM 36.0 °F - 28.9 °F 76% 29.85 in 10.0 mi Calm Calm - N/A   Clear
1:54 AM 34.0 °F - 30.0 °F 85% 29.84 in 10.0 mi Calm Calm - N/A   Overcast
2:54 AM 36.0 °F - 32.0 °F 86% 29.85 in 10.0 mi Calm Calm - N/A   Overcast
3:54 AM 33.1 °F - 30.0 °F 89% 29.85 in 10.0 mi Calm Calm - N/A   Scattered Clouds
4:54 AM 30.9 °F - 28.9 °F 92% 29.87 in 1.8 mi Calm Calm - N/A   Clear
5:00 AM 30.2 °F 26.7 °F 28.4 °F 93% 29.85 in 3.0 mi WSW 3.5 mph - N/A   Clear
5:54 AM 30.0 °F - 28.0 °F 92% 29.88 in 10.0 mi Calm Calm - N/A   Clear
6:54 AM 36.0 °F - 32.0 °F 86% 29.89 in 10.0 mi Calm Calm - N/A   Clear
7:54 AM 46.0 °F 44.8 °F 30.0 °F 54% 29.89 in 10.0 mi Variable 3.5 mph - N/A   Clear
8:54 AM 48.9 °F - 28.9 °F 46% 29.91 in 10.0 mi SSW 4.6 mph - N/A   Clear
9:54 AM 52.0 °F - 28.0 °F 40% 29.89 in 10.0 mi Variable 6.9 mph - N/A   Clear
10:54 AM 54.0 °F - 28.9 °F 38% 29.88 in 10.0 mi SW 11.5 mph 18.4 mph N/A   Clear
11:54 AM 57.0 °F - 28.9 °F 34% 29.86 in 10.0 mi SSW 9.2 mph - N/A   Clear
12:54 PM 59.0 °F - 28.9 °F 32% 29.82 in 10.0 mi Variable 5.8 mph 16.1 mph N/A   Clear
1:54 PM 60.1 °F - 27.0 °F 28% 29.81 in 10.0 mi Variable 5.8 mph - N/A   Clear
2:54 PM 59.0 °F - 25.0 °F 27% 29.78 in 10.0 mi SSW 6.9 mph 16.1 mph N/A   Clear
3:54 PM 60.1 °F - 27.0 °F 28% 29.75 in 10.0 mi South 5.8 mph 16.1 mph N/A   Mostly Cloudy
4:54 PM 57.0 °F - 33.1 °F 40% 29.75 in 10.0 mi SSE 9.2 mph 19.6 mph N/A   Overcast
5:54 PM 55.9 °F - 33.1 °F 42% 29.75 in 10.0 mi SSE 10.4 mph 19.6 mph N/A   Overcast
6:54 PM 50.0 °F - 35.1 °F 57% 29.74 in 10.0 mi SSE 8.1 mph - 0.00 in Rain Light Rain
7:54 PM 48.0 °F - 37.9 °F 68% 29.72 in 10.0 mi SSE 10.4 mph - 0.00 in Rain Light Rain
8:54 PM 45.0 °F 42.6 °F 39.9 °F 82% 29.70 in 10.0 mi SE 4.6 mph - 0.00 in Rain Light Rain
9:54 PM 44.1 °F 40.8 °F 43.0 °F 96% 29.68 in 6.0 mi ESE 5.8 mph - 0.05 in Rain Rain
10:06 PM 44.6 °F 43.1 °F 42.8 °F 93% 29.66 in 5.0 mi ESE 3.5 mph - 0.01 in Rain Light Rain
10:26 PM 44.6 °F - 42.8 °F 93% 29.64 in 7.0 mi Calm Calm - 0.02 in Rain Light Rain
10:37 PM 44.6 °F - 42.8 °F 93% 29.64 in 5.0 mi Calm Calm - 0.03 in Rain Light Rain
10:54 PM 44.1 °F 42.5 °F 43.0 °F 96% 29.62 in 4.0 mi East 3.5 mph - 0.06 in Rain Light Rain
11:15 PM 44.6 °F 43.1 °F 42.8 °F 93% 29.62 in 2.5 mi NNW 3.5 mph - 0.06 in Rain Rain
11:30 PM 44.6 °F 43.1 °F 42.8 °F 93% 29.61 in 2.5 mi NNE 3.5 mph - 0.14 in Rain Rain
11:33 PM 44.6 °F - 42.8 °F 93% 29.61 in 3.0 mi Calm Calm - 0.15 in Rain Rain
11:47 PM 44.6 °F 43.1 °F 42.8 °F 93% 29.60 in 4.0 mi North 3.5 mph - 0.19 in Rain Rain
11:54 PM 44.1 °F 42.5 °F 43.0 °F 96% 29.60 in 3.0 mi North 3.5 mph - 0.21 in Rain Rain